Location: Bodham
(52.9000°N, 1.1667°E)
Time: 15:12:41
(UTC+00:00)

Cosmos 2112 Rocket - Pass Details

Date: 19 October 2025
Orbit: 753 x 782 km, 74.0° (Epoch: 13 November)

Event Time Altitude Azimuth Distance (km) Brightness Sun altitude
Rises 05:43:56 0° 330° (NNW) 3,246 6.9 -7.5°
Reaches altitude 10° 05:46:25 10° 324° (NW) 2,311 6.1 -7.1°
Maximum altitude 05:51:21 43° 254° (WSW) 1,058 4.4 -6.4°
Drops below altitude 10° 05:56:13 10° 184° (S) 2,279 6.5 -5.7°
Sets 05:58:39 0° 178° (S) 3,197 7.4 -5.3°
